SCP
0 0 0 0 0 0 0 0 0 0 0 0 0 0 0 0 0 0 0 0 0 1 1 1 1 3 1 0 0 0 0 0 0 0 0 0 0 0 0 0 0 0 0 0
0 0 0 0 0 0 0 0 0 0 0 0 0 0 0 0 0 0 0 0 2 3 3 2 2 1 0 0 0 0 0 0 0 0 0 0 0 0 0 0 0 0 0 0
0 0 0 0 0 0 0 0 0 0 -0 0 0 0 0 0 0 0 0 0 0 3 2 1 1 0 0 0 0 0 0 0 0 0 0 0 0 0 0 0 0 0 0 0
0 0 0 0 0 0 0 0 0 0 0 0 0 0 0 0 0 0 0 0 0 1 0 0 -0 0 0 0 0 0 0 0 0 0 0 0 0 0 0 0 0 0 0 0
0 0 0 0 0 0 0 0 0 0 0 0 0 0 0 0 0 0 0 0 0 0 -0 -0 -0 0 0 0 0 0 0 0 0 0 0 0 0 0 0 0 0 0 0 0
0 0 0 0 0 0 0 0 0 0 0 0 0 0 0 0 0 0 0 0 0 0 -0 -0 -0 0 0 0 0 0 0 0 0 0 0 0 0 0 0 0 0 0 0 0
0 0 0 0 0 0 0 0 0 0 0 0 0 0 0 0 0 0 0 0 0 -0 -0 -0 0 -0 0 0 0 0 0 0 0 0 0 0 0 0 0 0 0 0 0 0
0 0 0 0 0 0 0 0 0 0 0 0 0 0 0 0 0 0 0 0 -0 -0 -0 -0 0 0 0 0 0 0 0 0 0 0 0 0 0 0 0 0 0 0 0 0
0 0 0 0 0 0 0 0 0 0 0 0 0 0 0 0 0 0 0 0 0 0 0 0 0 0 0 0 0 0 0 0 0 0 0 0 0 0 0 0 0 0 0 0
0 0 0 0 0 0 0 0 0 0 0 0 0 0 0 0 0 0 0 0 0 0 -0 0 0 0 0 0 0 0 0 0 0 0 0 0 0 0 0 0 0 0 0 0
0 0 0 0 0 0 0 0 0 0 0 0 0 0 0 0 0 0 0 0 0 0 0 0 0 0 0 0 0 0 0 0 0 0 0 0 0 0 0 0 0 0 0 0
0 0 0 0 0 0 0 0 0 0 0 0 0 0 0 0 0 0 0 0 0 0 0 0 0 0 0 0 0 0 0 0 0 0 0 0 0 0 0 0 0 0 0 0
0 0 0 0 0 0 0 0 0 0 0 0 0 0 0 0 0 0 0 0 0 0 0 -0 0 0 0 0 0 0 0 0 0 0 0 0 0 0 0 0 0 0 0 0
0 0 0 0 0 0 0 0 0 0 0 0 0 0 0 0 0 0 0 0 0 0 0 -0 0 0 0 0 0 0 0 0 0 0 0 0 0 0 0 0 0 0 0 0
0 0 0 0 0 0 0 0 0 0 0 0 0 0 0 0 0 0 0 0 0 0 0 0 0 0 0 0 0 0 0 0 0 0 0 0 0 0 0 0 0 0 0 0
0 0 0 0 0 0 0 0 0 0 0 0 0 0 0 0 0 0 0 0 0 0 0 0 0 0 0 0 0 0 0 0 0 0 0 0 0 0 0 0 0 0 0 0
0 0 0 0 0 0 0 0 0 0 0 0 0 0 0 0 0 -0 -0 -0 -0 0 0 0 0 0 0 0 0 0 0 0 0 0 0 0 0 0 0 0 0 0 0 0
0 0 0 0 0 0 0 0 0 0 0 0 0 0 0 0 0 -0 -0 -0 -0 -0 0 0 0 0 0 0 -0 -0 0 0 0 0 0 0 0 0 0 0 0 0 0 0
0 0 0 0 0 0 0 0 0 0 0 0 0 0 0 0 0 0 0 -0 0 0 0 0 0 0 0 0 -0 -0 0 0 0 0 0 0 0 0 0 0 0 0 0 0
0 0 0 0 0 0 0 0 0 0 0 0 0 0 0 0 0 0 0 0 0 0 0 0 0 0 0 -0 -0 -0 -0 0 0 0 0 0 0 0 0 0 0 0 0 0
-0 0 0 0 0 0 0 0 -0 0 0 0 0 0 0 0 0 0 0 0 0 0 0 0 0 0 0 -0 -0 0 -0 0 0 0 0 0 0 0 0 0 0 0 0 0
-0 0 0 0 0 -0 -0 0 0 0 0 -0 0 -0 0 0 0 0 0 0 0 0 0 0 0 0 0 0 -0 -0 -0 0 0 0 0 0 0 0 0 0 0 0 0 0
-0 -0 0 -0 -0 -0 0 0 -0 -0 0 0 -0 0 0 0 0 0 0 0 0 0 0 0 0 0 0 -0 -0 0 0 -0 -0 0 0 0 0 0 0 0 0 0 0 0
-0 0 -0 -0 -0 0 0 -0 -0 0 0 0 0 0 0 0 0 0 0 0 0 0 0 0 0 0 0 0 -0 -0 0 -0 -0 0 0 0 0 0 0 0 0 0 0 0
0 0 -0 0 0 0 -0 0 0 0 -0 0 0 0 0 0 0 0 0 0 0 0 0 0 -0 0 0 -0 -0 0 0 0 0 0 0 0 0 0 0 0 0 0 0 0
0 -0 -0 0 -0 -0 0 0 0 0 0 0 0 0 0 0 0 0 0 0 0 0 0 0 0 0 -0 0 0 0 0 0 0 0 0 0 0 0 0 0 0 0 0 0
0 0 -0 0 -0 0 0 0 0 0 0 0 0 0 0 0 0 0 0 0 0 0 0 -0 -0 0 0 0 0 0 0 0 -0 -0 -0 0 0 0 0 0 0 0 0 0
Wind_Speed_500mb
8 9 3 5 12 6 11 14 9 12 11 21 13 16 31 44 55 62 66 64 64 63 56 45 34 35 38 36 29 32 69 46 20 17 20 18 14 10 7 6 11 16 23 28
5 5 11 6 18 15 6 2 6 11 6 17 29 38 54 55 57 62 70 69 70 76 70 50 22 30 37 30 22 27 46 18 21 22 15 9 9 4 5 10 12 17 25 30
8 6 9 11 10 4 5 13 3 11 3 9 17 35 44 54 63 64 70 63 62 69 69 66 34 24 26 18 18 33 7 19 24 14 10 5 6 3 4 11 16 22 27 27
5 6 5 9 11 5 17 10 16 6 4 3 9 9 40 51 55 61 66 69 62 65 62 56 52 33 26 23 20 22 22 19 18 13 7 5 4 7 11 17 22 25 21 16
4 5 10 18 5 3 4 7 14 6 13 21 15 4 32 42 46 52 58 63 62 58 58 55 41 38 29 26 31 20 12 18 13 6 5 4 8 9 12 17 22 11 17 25
3 6 9 13 4 13 4 2 8 29 24 22 30 9 8 31 39 45 56 64 72 65 54 46 38 31 25 21 13 4 7 15 12 9 10 12 11 10 16 18 8 20 26 31
6 8 12 14 34 33 6 9 7 17 19 24 9 6 20 27 35 41 40 52 69 76 62 43 37 23 18 23 16 11 15 11 9 9 10 10 10 15 16 8 16 26 35 40
3 4 10 29 11 5 9 15 16 11 11 12 12 21 28 35 41 44 60 49 51 62 67 46 37 24 19 22 16 17 10 12 10 5 6 8 6 7 8 14 25 34 34 26
9 9 5 19 18 11 20 26 27 27 30 32 36 44 49 46 53 47 55 46 41 48 68 54 39 29 24 22 21 11 12 15 14 5 4 3 3 11 18 25 27 24 17 22
5 7 12 21 6 7 24 30 30 33 43 38 38 36 39 42 44 38 40 38 39 48 62 56 39 24 25 20 19 17 18 16 10 7 8 8 12 18 17 18 16 18 23 32
11 27 40 31 25 50 51 58 55 53 48 45 44 46 49 52 56 56 43 47 43 42 51 48 36 19 24 20 22 24 22 12 7 8 8 10 14 15 14 11 17 24 33 44
17 46 25 44 54 62 80 73 66 65 61 54 57 62 50 51 50 51 47 44 42 39 42 50 38 22 24 15 26 28 21 11 8 10 7 10 14 11 12 16 22 30 41 47
37 44 62 74 64 60 63 59 60 53 51 52 45 46 40 42 38 44 48 43 42 31 35 46 32 23 12 12 24 23 18 10 8 5 3 7 7 9 16 19 28 39 40 36
39 44 52 56 62 60 67 69 70 66 63 59 55 44 38 28 36 46 43 34 32 29 31 43 38 13 10 18 19 22 19 10 9 0 3 5 5 10 17 25 33 32 30 31
53 49 61 67 63 62 58 60 61 62 60 57 48 50 49 50 46 40 39 33 22 26 36 40 33 17 13 14 15 18 11 8 6 4 5 7 7 12 21 29 29 28 29 30
50 49 51 45 49 54 58 59 56 58 56 56 57 56 42 39 33 32 29 32 36 37 37 39 26 20 16 12 21 17 13 14 5 5 7 6 11 21 26 24 24 29 33 36
50 50 60 68 70 76 78 74 68 69 72 69 63 55 48 46 51 57 56 52 49 45 42 34 24 18 16 27 20 18 24 16 4 7 8 11 19 24 21 20 23 27 30 30
56 64 70 73 77 77 81 80 78 75 70 70 69 67 67 66 66 62 56 47 44 38 35 24 24 23 37 27 20 25 20 13 7 7 8 15 22 19 19 20 23 27 28 23
66 67 69 67 66 72 74 74 73 73 72 67 64 69 65 58 52 46 36 35 26 24 18 21 34 36 42 32 22 16 16 9 7 7 12 19 19 20 21 24 27 26 27 20
67 68 64 68 66 61 67 71 72 69 66 65 60 59 52 46 37 31 27 25 20 14 19 34 35 44 36 20 15 23 17 13 9 11 15 17 21 25 27 28 28 28 24 20
68 65 69 61 54 56 64 71 74 76 72 60 48 44 35 26 23 25 25 26 22 20 45 43 46 29 35 36 28 19 18 14 11 14 15 15 19 26 31 30 30 27 23 19
64 64 63 51 51 65 64 62 68 74 68 59 48 33 29 23 22 22 29 30 36 52 58 45 46 35 36 34 21 18 18 12 13 14 14 16 19 23 33 34 30 27 23 19
69 65 42 42 55 57 54 50 52 48 4 22 31 28 30 25 29 41 44 61 68 56 59 60 40 42 37 26 18 13 12 14 14 16 18 19 23 27 34 35 30 27 24 18
56 44 43 46 48 46 42 48 48 34 32 29 29 28 34 47 48 50 69 73 65 60 62 57 48 31 12 18 15 15 16 15 16 16 17 18 24 27 30 33 30 29 27 20
39 37 44 39 32 32 35 41 46 57 53 57 57 59 61 66 90 84 77 74 74 66 52 38 28 20 23 22 19 15 16 18 16 16 14 22 26 31 29 30 31 30 28 22
18 30 37 27 23 28 42 48 59 64 76 85 89 95 96 93 88 80 74 69 61 53 39 29 26 24 21 18 16 16 18 17 15 12 19 21 27 32 31 28 31 31 30 23
5 24 33 24 24 35 44 57 68 71 80 91 90 80 81 82 77 70 58 45 44 41 38 34 29 26 22 18 19 21 20 18 15 19 21 23 24 29 31 28 31 31 29 24
Wind_Direction_500mb
250 257 277 253 281 242 213 239 189 266 264 287 11 18 29 27 20 20 22 21 15 7 356 339 301 266 255 247 251 256 314 298 297 299 297 276 262 253 262 306 332 348 344 340
269 1 340 281 274 287 304 2 281 292 288 356 48 39 30 22 17 14 12 16 13 9 5 359 325 262 255 253 287 291 319 187 235 266 288 285 265 262 345 342 332 341 341 334
253 325 329 318 273 283 307 30 302 57 283 337 35 43 30 20 21 14 14 10 13 10 6 6 353 320 273 283 300 294 225 210 228 251 292 288 247 280 326 335 339 338 333 319
245 356 248 246 288 207 98 53 25 4 337 195 170 67 36 31 21 14 13 13 15 11 11 12 5 341 290 265 267 281 245 225 214 252 264 224 228 268 311 338 333 327 316 305
171 213 299 312 129 8 261 70 354 307 340 359 352 52 22 21 18 13 6 2 5 7 7 2 353 344 315 256 299 287 229 217 238 249 231 266 298 297 316 324 324 311 310 313
142 182 227 245 268 320 210 199 29 64 42 29 45 58 289 6 10 4 356 352 351 352 352 351 350 357 341 318 328 357 218 240 260 228 256 283 304 319 322 330 296 304 315 310
187 223 281 324 324 343 17 251 159 85 68 47 56 8 348 356 356 351 339 342 338 339 342 340 342 350 337 353 326 289 265 246 234 242 259 282 314 330 326 313 308 312 312 306
114 202 283 352 44 50 315 347 328 323 357 338 308 310 326 333 332 336 329 321 315 322 322 330 325 308 304 308 306 283 234 222 223 233 269 329 354 341 325 301 308 317 316 308
169 225 172 62 84 51 5 340 313 292 302 305 310 301 292 296 313 310 309 301 308 309 313 316 314 296 284 289 282 230 218 220 204 200 201 246 279 314 317 317 320 326 322 315
26 282 230 322 169 329 339 326 318 303 300 302 304 318 320 302 296 290 286 287 298 305 311 317 307 291 289 282 280 233 226 211 207 193 219 264 319 333 336 328 339 340 333 333
253 281 294 301 250 307 308 317 304 298 301 290 290 291 292 288 289 291 277 290 297 294 312 320 315 294 297 283 253 231 222 209 197 216 258 308 335 334 340 345 346 340 339 338
273 286 280 288 300 302 306 303 298 293 292 288 284 288 292 296 300 303 299 295 301 289 311 330 325 298 287 265 237 232 208 168 187 228 275 318 333 337 345 349 345 341 340 345
273 288 295 300 301 301 300 309 310 306 299 301 303 295 297 303 306 311 302 297 299 291 315 340 329 313 240 256 256 244 153 166 220 265 342 344 348 345 1 360 348 341 351 358
305 303 298 307 304 306 306 303 303 301 301 301 302 296 303 302 314 314 328 300 291 285 322 341 334 313 246 250 250 163 148 189 243 250 337 8 354 0 360 354 346 353 6 9
311 310 306 308 303 305 310 309 308 301 298 296 288 286 293 292 295 301 304 330 296 301 320 329 336 275 253 276 171 144 140 185 146 106 51 13 30 8 354 350 355 6 11 21
324 319 315 315 313 311 310 308 305 300 296 292 288 289 288 281 277 292 306 302 301 305 311 312 314 287 226 184 155 134 161 154 142 52 56 62 20 358 355 3 13 18 19 25
328 318 315 309 310 309 307 305 299 296 294 289 282 285 282 278 281 287 291 291 290 289 292 288 279 253 164 154 130 157 155 153 136 79 65 30 6 0 9 19 27 24 29 23
319 313 310 307 306 306 304 301 297 295 295 297 287 277 273 274 278 286 287 286 280 273 283 255 235 192 154 137 144 145 157 145 125 76 42 12 7 17 24 28 28 32 28 33
327 323 320 313 309 306 304 301 298 295 292 290 289 273 273 275 276 278 275 277 265 271 239 218 198 171 157 152 163 165 176 159 129 81 28 20 31 34 35 31 37 30 28 47
330 330 324 321 321 315 309 304 300 295 290 289 283 268 264 265 264 256 259 251 253 215 210 183 163 159 163 160 166 157 165 139 104 54 36 43 44 42 41 41 39 35 34 61
330 330 327 324 318 317 319 312 304 294 286 280 270 254 253 257 229 236 241 208 204 190 165 150 152 167 143 140 151 155 149 123 76 51 48 52 45 41 39 43 40 35 42 74
336 329 325 326 324 326 326 316 308 302 276 261 245 243 227 224 229 224 208 199 166 150 134 141 143 141 137 145 149 144 130 90 71 54 59 55 44 39 40 43 37 38 48 82
336 333 340 338 341 334 336 346 357 2 39 205 197 197 196 203 204 193 171 154 143 144 140 141 143 133 141 136 122 113 116 91 75 72 63 56 52 44 38 37 39 43 51 78
338 345 337 341 342 345 2 21 40 55 79 115 140 162 184 177 159 162 149 138 141 139 142 138 134 133 126 120 117 124 103 83 77 68 63 61 57 44 40 33 40 47 52 62
350 354 352 359 8 18 33 50 70 82 109 117 126 133 136 139 134 122 126 131 131 127 128 134 135 126 114 104 104 98 88 83 76 71 66 76 57 44 44 37 37 45 50 54
331 8 10 13 35 61 65 77 84 81 98 102 103 114 116 116 117 121 129 133 135 130 120 120 122 113 113 109 96 93 92 89 84 78 82 73 53 39 40 38 37 43 49 54
90 41 30 43 79 78 89 93 93 90 100 107 110 115 118 120 121 118 113 109 115 115 111 110 112 115 110 101 100 95 93 94 89 84 79 67 52 42 36 39 38 39 47 56
Wind_Speed_850mb
8 9 3 5 12 6 11 14 9 12 11 21 13 16 31 44 55 62 66 64 64 63 56 45 34 35 38 36 29 32 69 46 20 17 20 18 14 10 7 6 11 16 23 28
5 5 11 6 18 15 6 2 6 11 6 17 29 38 54 55 57 62 70 69 70 76 70 50 22 30 37 30 22 27 46 18 21 22 15 9 9 4 5 10 12 17 25 30
8 6 9 11 10 4 5 13 3 11 3 9 17 35 44 54 63 64 70 63 62 69 69 66 34 24 26 18 18 33 7 19 24 14 10 5 6 3 4 11 16 22 27 27
5 6 5 9 11 5 17 10 16 6 4 3 9 9 40 51 55 61 66 69 62 65 62 56 52 33 26 23 20 22 22 19 18 13 7 5 4 7 11 17 22 25 21 16
4 5 10 18 5 3 4 7 14 6 13 21 15 4 32 42 46 52 58 63 62 58 58 55 41 38 29 26 31 20 12 18 13 6 5 4 8 9 12 17 22 11 17 25
3 6 9 13 4 13 4 2 8 29 24 22 30 9 8 31 39 45 56 64 72 65 54 46 38 31 25 21 13 4 7 15 12 9 10 12 11 10 16 18 8 20 26 31
6 8 12 14 34 33 6 9 7 17 19 24 9 6 20 27 35 41 40 52 69 76 62 43 37 23 18 23 16 11 15 11 9 9 10 10 10 15 16 8 16 26 35 40
3 4 10 29 11 5 9 15 16 11 11 12 12 21 28 35 41 44 60 49 51 62 67 46 37 24 19 22 16 17 10 12 10 5 6 8 6 7 8 14 25 34 34 26
9 9 5 19 18 11 20 26 27 27 30 32 36 44 49 46 53 47 55 46 41 48 68 54 39 29 24 22 21 11 12 15 14 5 4 3 3 11 18 25 27 24 17 22
5 7 12 21 6 7 24 30 30 33 43 38 38 36 39 42 44 38 40 38 39 48 62 56 39 24 25 20 19 17 18 16 10 7 8 8 12 18 17 18 16 18 23 32
11 27 40 31 25 50 51 58 55 53 48 45 44 46 49 52 56 56 43 47 43 42 51 48 36 19 24 20 22 24 22 12 7 8 8 10 14 15 14 11 17 24 33 44
17 46 25 44 54 62 80 73 66 65 61 54 57 62 50 51 50 51 47 44 42 39 42 50 38 22 24 15 26 28 21 11 8 10 7 10 14 11 12 16 22 30 41 47
37 44 62 74 64 60 63 59 60 53 51 52 45 46 40 42 38 44 48 43 42 31 35 46 32 23 12 12 24 23 18 10 8 5 3 7 7 9 16 19 28 39 40 36
39 44 52 56 62 60 67 69 70 66 63 59 55 44 38 28 36 46 43 34 32 29 31 43 38 13 10 18 19 22 19 10 9 0 3 5 5 10 17 25 33 32 30 31
53 49 61 67 63 62 58 60 61 62 60 57 48 50 49 50 46 40 39 33 22 26 36 40 33 17 13 14 15 18 11 8 6 4 5 7 7 12 21 29 29 28 29 30
50 49 51 45 49 54 58 59 56 58 56 56 57 56 42 39 33 32 29 32 36 37 37 39 26 20 16 12 21 17 13 14 5 5 7 6 11 21 26 24 24 29 33 36
50 50 60 68 70 76 78 74 68 69 72 69 63 55 48 46 51 57 56 52 49 45 42 34 24 18 16 27 20 18 24 16 4 7 8 11 19 24 21 20 23 27 30 30
56 64 70 73 77 77 81 80 78 75 70 70 69 67 67 66 66 62 56 47 44 38 35 24 24 23 37 27 20 25 20 13 7 7 8 15 22 19 19 20 23 27 28 23
66 67 69 67 66 72 74 74 73 73 72 67 64 69 65 58 52 46 36 35 26 24 18 21 34 36 42 32 22 16 16 9 7 7 12 19 19 20 21 24 27 26 27 20
67 68 64 68 66 61 67 71 72 69 66 65 60 59 52 46 37 31 27 25 20 14 19 34 35 44 36 20 15 23 17 13 9 11 15 17 21 25 27 28 28 28 24 20
68 65 69 61 54 56 64 71 74 76 72 60 48 44 35 26 23 25 25 26 22 20 45 43 46 29 35 36 28 19 18 14 11 14 15 15 19 26 31 30 30 27 23 19
64 64 63 51 51 65 64 62 68 74 68 59 48 33 29 23 22 22 29 30 36 52 58 45 46 35 36 34 21 18 18 12 13 14 14 16 19 23 33 34 30 27 23 19
69 65 42 42 55 57 54 50 52 48 4 22 31 28 30 25 29 41 44 61 68 56 59 60 40 42 37 26 18 13 12 14 14 16 18 19 23 27 34 35 30 27 24 18
56 44 43 46 48 46 42 48 48 34 32 29 29 28 34 47 48 50 69 73 65 60 62 57 48 31 12 18 15 15 16 15 16 16 17 18 24 27 30 33 30 29 27 20
39 37 44 39 32 32 35 41 46 57 53 57 57 59 61 66 90 84 77 74 74 66 52 38 28 20 23 22 19 15 16 18 16 16 14 22 26 31 29 30 31 30 28 22
18 30 37 27 23 28 42 48 59 64 76 85 89 95 96 93 88 80 74 69 61 53 39 29 26 24 21 18 16 16 18 17 15 12 19 21 27 32 31 28 31 31 30 23
5 24 33 24 24 35 44 57 68 71 80 91 90 80 81 82 77 70 58 45 44 41 38 34 29 26 22 18 19 21 20 18 15 19 21 23 24 29 31 28 31 31 29 24
Wind_Direction_850mb
250 257 277 253 281 242 213 239 189 266 264 287 11 18 29 27 20 20 22 21 15 7 356 339 301 266 255 247 251 256 314 298 297 299 297 276 262 253 262 306 332 348 344 340
269 1 340 281 274 287 304 2 281 292 288 356 48 39 30 22 17 14 12 16 13 9 5 359 325 262 255 253 287 291 319 187 235 266 288 285 265 262 345 342 332 341 341 334
253 325 329 318 273 283 307 30 302 57 283 337 35 43 30 20 21 14 14 10 13 10 6 6 353 320 273 283 300 294 225 210 228 251 292 288 247 280 326 335 339 338 333 319
245 356 248 246 288 207 98 53 25 4 337 195 170 67 36 31 21 14 13 13 15 11 11 12 5 341 290 265 267 281 245 225 214 252 264 224 228 268 311 338 333 327 316 305
171 213 299 312 129 8 261 70 354 307 340 359 352 52 22 21 18 13 6 2 5 7 7 2 353 344 315 256 299 287 229 217 238 249 231 266 298 297 316 324 324 311 310 313
142 182 227 245 268 320 210 199 29 64 42 29 45 58 289 6 10 4 356 352 351 352 352 351 350 357 341 318 328 357 218 240 260 228 256 283 304 319 322 330 296 304 315 310
187 223 281 324 324 343 17 251 159 85 68 47 56 8 348 356 356 351 339 342 338 339 342 340 342 350 337 353 326 289 265 246 234 242 259 282 314 330 326 313 308 312 312 306
114 202 283 352 44 50 315 347 328 323 357 338 308 310 326 333 332 336 329 321 315 322 322 330 325 308 304 308 306 283 234 222 223 233 269 329 354 341 325 301 308 317 316 308
169 225 172 62 84 51 5 340 313 292 302 305 310 301 292 296 313 310 309 301 308 309 313 316 314 296 284 289 282 230 218 220 204 200 201 246 279 314 317 317 320 326 322 315
26 282 230 322 169 329 339 326 318 303 300 302 304 318 320 302 296 290 286 287 298 305 311 317 307 291 289 282 280 233 226 211 207 193 219 264 319 333 336 328 339 340 333 333
253 281 294 301 250 307 308 317 304 298 301 290 290 291 292 288 289 291 277 290 297 294 312 320 315 294 297 283 253 231 222 209 197 216 258 308 335 334 340 345 346 340 339 338
273 286 280 288 300 302 306 303 298 293 292 288 284 288 292 296 300 303 299 295 301 289 311 330 325 298 287 265 237 232 208 168 187 228 275 318 333 337 345 349 345 341 340 345
273 288 295 300 301 301 300 309 310 306 299 301 303 295 297 303 306 311 302 297 299 291 315 340 329 313 240 256 256 244 153 166 220 265 342 344 348 345 1 360 348 341 351 358
305 303 298 307 304 306 306 303 303 301 301 301 302 296 303 302 314 314 328 300 291 285 322 341 334 313 246 250 250 163 148 189 243 250 337 8 354 0 360 354 346 353 6 9
311 310 306 308 303 305 310 309 308 301 298 296 288 286 293 292 295 301 304 330 296 301 320 329 336 275 253 276 171 144 140 185 146 106 51 13 30 8 354 350 355 6 11 21
324 319 315 315 313 311 310 308 305 300 296 292 288 289 288 281 277 292 306 302 301 305 311 312 314 287 226 184 155 134 161 154 142 52 56 62 20 358 355 3 13 18 19 25
328 318 315 309 310 309 307 305 299 296 294 289 282 285 282 278 281 287 291 291 290 289 292 288 279 253 164 154 130 157 155 153 136 79 65 30 6 0 9 19 27 24 29 23
319 313 310 307 306 306 304 301 297 295 295 297 287 277 273 274 278 286 287 286 280 273 283 255 235 192 154 137 144 145 157 145 125 76 42 12 7 17 24 28 28 32 28 33
327 323 320 313 309 306 304 301 298 295 292 290 289 273 273 275 276 278 275 277 265 271 239 218 198 171 157 152 163 165 176 159 129 81 28 20 31 34 35 31 37 30 28 47
330 330 324 321 321 315 309 304 300 295 290 289 283 268 264 265 264 256 259 251 253 215 210 183 163 159 163 160 166 157 165 139 104 54 36 43 44 42 41 41 39 35 34 61
330 330 327 324 318 317 319 312 304 294 286 280 270 254 253 257 229 236 241 208 204 190 165 150 152 167 143 140 151 155 149 123 76 51 48 52 45 41 39 43 40 35 42 74
336 329 325 326 324 326 326 316 308 302 276 261 245 243 227 224 229 224 208 199 166 150 134 141 143 141 137 145 149 144 130 90 71 54 59 55 44 39 40 43 37 38 48 82
336 333 340 338 341 334 336 346 357 2 39 205 197 197 196 203 204 193 171 154 143 144 140 141 143 133 141 136 122 113 116 91 75 72 63 56 52 44 38 37 39 43 51 78
338 345 337 341 342 345 2 21 40 55 79 115 140 162 184 177 159 162 149 138 141 139 142 138 134 133 126 120 117 124 103 83 77 68 63 61 57 44 40 33 40 47 52 62
350 354 352 359 8 18 33 50 70 82 109 117 126 133 136 139 134 122 126 131 131 127 128 134 135 126 114 104 104 98 88 83 76 71 66 76 57 44 44 37 37 45 50 54
331 8 10 13 35 61 65 77 84 81 98 102 103 114 116 116 117 121 129 133 135 130 120 120 122 113 113 109 96 93 92 89 84 78 82 73 53 39 40 38 37 43 49 54
90 41 30 43 79 78 89 93 93 90 100 107 110 115 118 120 121 118 113 109 115 115 111 110 112 115 110 101 100 95 93 94 89 84 79 67 52 42 36 39 38 39 47 56